Time,TemperatureF,DewpointF,PressureIn,WindDirection,WindDirectionDegrees,WindSpeedMPH,WindSpeedGustMPH,Humidity,HourlyPrecipIn,Conditions,Clouds,dailyrainin,SolarRadiationWatts/m^2,SoftwareType,DateUTC
2013-01-29 00:03:00,50.5,44.6,30.19,ENE,74,3.0,16.0,80,0.00,,,0.00,0.0,meteohub,2013-01-29 05:03:00,
2013-01-29 00:06:00,50.5,44.6,30.19,East,96,0.0,9.0,80,0.00,,,0.00,0.0,meteohub,2013-01-29 05:06:00,
2013-01-29 00:09:00,50.5,44.6,30.19,NE,45,3.0,9.0,80,0.00,,,0.00,0.0,meteohub,2013-01-29 05:09:00,
2013-01-29 00:15:00,50.4,44.1,30.19,East,90,0.0,26.0,79,0.00,,,0.00,0.0,meteohub,2013-01-29 05:15:00,
2013-01-29 00:18:00,50.2,44.2,30.19,East,100,0.0,26.0,80,0.00,,,0.00,0.0,meteohub,2013-01-29 05:18:00,
2013-01-29 00:24:00,50.0,44.1,30.19,SSW,202,1.0,26.0,80,0.00,,,0.00,0.0,meteohub,2013-01-29 05:24:00,
2013-01-29 00:30:00,50.0,44.1,30.19,NE,36,0.0,18.0,80,0.00,,,0.00,0.0,meteohub,2013-01-29 05:30:00,
2013-01-29 00:36:00,49.6,44.1,30.19,NNE,13,0.0,18.0,81,0.00,,,0.00,0.0,meteohub,2013-01-29 05:36:00,
2013-01-29 00:42:00,49.6,44.4,30.19,East,89,0.0,19.0,82,0.00,,,0.00,0.0,meteohub,2013-01-29 05:42:00,
2013-01-29 00:47:00,49.6,44.8,30.19,NNE,22,3.0,19.0,83,0.00,,,0.00,0.0,meteohub,2013-01-29 05:47:00,
2013-01-29 00:52:00,49.6,45.0,30.19,NW,309,0.0,19.0,84,0.00,,,0.00,0.0,meteohub,2013-01-29 05:52:00,
2013-01-29 00:57:00,49.5,44.8,30.19,West,281,1.0,6.0,84,0.00,,,0.00,0.0,meteohub,2013-01-29 05:57:00,
2013-01-29 01:02:00,49.5,44.8,30.19,ENE,59,0.0,19.0,84,0.00,,,0.00,0.0,meteohub,2013-01-29 06:02:00,
2013-01-29 01:07:00,49.5,44.8,30.18,South,184,2.0,19.0,84,0.00,,,0.00,0.0,meteohub,2013-01-29 06:07:00,
2013-01-29 01:12:00,49.5,44.8,30.18,SW,229,2.0,15.0,84,0.00,,,0.00,0.0,meteohub,2013-01-29 06:12:00,
2013-01-29 01:17:00,49.5,45.5,30.18,NNW,347,3.0,9.0,86,0.00,,,0.00,0.0,meteohub,2013-01-29 06:17:00,
2013-01-29 01:22:00,49.3,45.5,30.18,SW,234,0.0,9.0,87,0.00,,,0.00,0.0,meteohub,2013-01-29 06:22:00,
2013-01-29 01:27:00,49.5,46.0,30.18,NE,36,0.0,14.0,88,0.00,,,0.00,0.0,meteohub,2013-01-29 06:27:00,
2013-01-29 01:32:00,49.3,45.9,30.18,SE,140,0.0,14.0,88,0.00,,,0.00,0.0,meteohub,2013-01-29 06:32:00,
2013-01-29 01:37:00,49.3,46.4,30.18,NNE,22,2.0,14.0,90,0.00,,,0.00,0.0,meteohub,2013-01-29 06:37:00,
2013-01-29 01:42:00,49.3,46.2,30.18,ESE,121,4.0,14.0,89,0.00,,,0.00,0.0,meteohub,2013-01-29 06:42:00,
2013-01-29 01:47:00,49.3,46.2,30.18,NE,41,0.0,13.0,89,0.00,,,0.00,0.0,meteohub,2013-01-29 06:47:00,
2013-01-29 01:52:00,49.3,45.9,30.17,SSE,159,1.0,13.0,88,0.00,,,0.00,0.0,meteohub,2013-01-29 06:52:00,
2013-01-29 01:57:00,49.3,45.5,30.17,SW,229,3.0,17.0,87,0.00,,,0.00,0.0,meteohub,2013-01-29 06:57:00,
2013-01-29 02:02:00,49.5,45.1,30.17,NW,317,1.0,17.0,85,0.00,,,0.00,0.0,meteohub,2013-01-29 07:02:00,
2013-01-29 02:07:00,49.8,44.8,30.17,NE,53,0.0,17.0,83,0.00,,,0.00,0.0,meteohub,2013-01-29 07:07:00,
2013-01-29 02:12:00,50.2,44.2,30.17,West,275,0.0,11.0,80,0.00,,,0.00,0.0,meteohub,2013-01-29 07:12:00,
2013-01-29 02:17:00,50.4,44.1,30.17,SE,140,5.0,21.0,79,0.00,,,0.00,0.0,meteohub,2013-01-29 07:17:00,
2013-01-29 02:22:00,50.5,43.9,30.17,SSW,204,3.0,21.0,78,0.00,,,0.00,0.0,meteohub,2013-01-29 07:22:00,
2013-01-29 02:27:00,50.5,43.5,30.17,NE,36,0.0,21.0,77,0.00,,,0.00,0.0,meteohub,2013-01-29 07:27:00,
2013-01-29 02:32:00,50.5,43.5,30.17,NE,55,0.0,16.0,77,0.00,,,0.00,0.0,meteohub,2013-01-29 07:32:00,
2013-01-29 02:37:00,50.5,43.5,30.17,West,265,0.0,16.0,77,0.00,,,0.00,0.0,meteohub,2013-01-29 07:37:00,
2013-01-29 02:42:00,50.5,43.5,30.17,ESE,115,2.0,11.0,77,0.00,,,0.00,0.0,meteohub,2013-01-29 07:42:00,
2013-01-29 02:47:00,50.5,43.5,30.17,SE,143,0.0,11.0,77,0.00,,,0.00,0.0,meteohub,2013-01-29 07:47:00,
2013-01-29 02:52:00,50.5,43.5,30.17,SSW,200,3.0,11.0,77,0.00,,,0.00,0.0,meteohub,2013-01-29 07:52:00,
2013-01-29 02:57:00,50.4,43.3,30.17,South,180,0.0,11.0,77,0.00,,,0.00,0.0,meteohub,2013-01-29 07:57:00,
2013-01-29 03:02:00,50.4,43.7,30.17,NE,51,3.0,10.0,78,0.00,,,0.00,0.0,meteohub,2013-01-29 08:02:00,
2013-01-29 03:07:00,50.0,43.3,30.17,SE,136,1.0,14.0,78,0.00,,,0.00,0.0,meteohub,2013-01-29 08:07:00,
2013-01-29 03:12:00,50.0,43.7,30.16,SE,138,2.0,14.0,79,0.00,,,0.00,0.0,meteohub,2013-01-29 08:12:00,
2013-01-29 03:17:00,50.2,43.9,30.16,NE,53,0.0,9.0,79,0.00,,,0.00,0.0,meteohub,2013-01-29 08:17:00,
2013-01-29 03:22:00,50.5,44.2,30.16,SSE,150,5.0,11.0,79,0.00,,,0.00,0.0,meteohub,2013-01-29 08:22:00,
2013-01-29 03:27:00,50.7,44.4,30.16,SE,140,5.0,20.0,79,0.00,,,0.00,0.0,meteohub,2013-01-29 08:27:00,
2013-01-29 03:32:00,50.9,45.0,30.15,NE,46,1.0,20.0,80,0.00,,,0.00,0.0,meteohub,2013-01-29 08:32:00,
2013-01-29 03:37:00,51.1,45.5,30.15,East,101,0.0,20.0,81,0.00,,,0.00,0.0,meteohub,2013-01-29 08:37:00,
2013-01-29 03:42:00,51.3,45.3,30.16,West,274,2.0,11.0,80,0.00,,,0.00,0.0,meteohub,2013-01-29 08:42:00,
2013-01-29 03:47:00,51.3,45.0,30.15,ESE,114,1.0,11.0,79,0.00,,,0.00,0.0,meteohub,2013-01-29 08:47:00,
2013-01-29 03:52:00,51.3,45.0,30.15,SSE,156,7.0,10.0,79,0.00,,,0.00,0.0,meteohub,2013-01-29 08:52:00,
2013-01-29 03:57:00,51.4,44.8,30.15,NE,44,1.0,10.0,78,0.00,,,0.00,0.0,meteohub,2013-01-29 08:57:00,
2013-01-29 04:02:00,51.6,45.0,30.15,East,94,5.0,10.0,78,0.00,,,0.00,0.0,meteohub,2013-01-29 09:02:00,
2013-01-29 04:07:00,52.0,45.0,30.14,NW,325,0.0,22.0,77,0.00,,,0.00,0.0,meteohub,2013-01-29 09:07:00,
2013-01-29 04:12:00,52.2,44.8,30.15,ENE,65,1.0,22.0,76,0.00,,,0.00,0.0,meteohub,2013-01-29 09:12:00,
2013-01-29 04:17:00,52.2,45.1,30.15,East,85,0.0,22.0,77,0.00,,,0.00,0.0,meteohub,2013-01-29 09:17:00,
2013-01-29 04:22:00,52.5,45.9,30.15,NE,53,1.0,18.0,78,0.00,,,0.00,0.0,meteohub,2013-01-29 09:22:00,
2013-01-29 04:27:00,52.9,46.2,30.15,SW,225,2.0,18.0,78,0.00,,,0.00,0.0,meteohub,2013-01-29 09:27:00,
2013-01-29 04:32:00,53.2,47.3,30.16,SSW,198,3.0,18.0,80,0.00,,,0.00,0.0,meteohub,2013-01-29 09:32:00,
2013-01-29 04:37:00,53.6,47.3,30.16,ESE,113,9.0,16.0,79,0.00,,,0.00,0.0,meteohub,2013-01-29 09:37:00,
2013-01-29 04:42:00,53.8,46.8,30.15,North,355,15.0,15.0,77,0.00,,,0.00,0.0,meteohub,2013-01-29 09:42:00,
2013-01-29 04:47:00,53.8,46.4,30.15,South,176,8.0,25.0,76,0.00,,,0.00,0.0,meteohub,2013-01-29 09:47:00,
2013-01-29 04:52:00,53.8,46.4,30.15,SE,140,5.0,25.0,76,0.00,,,0.00,0.0,meteohub,2013-01-29 09:52:00,
2013-01-29 04:57:00,53.6,46.6,30.15,ESE,104,6.0,25.0,77,0.00,,,0.00,0.0,meteohub,2013-01-29 09:57:00,
2013-01-29 05:02:00,53.4,46.4,30.15,NNW,335,2.0,16.0,77,0.00,,,0.00,0.0,meteohub,2013-01-29 10:02:00,
2013-01-29 05:07:00,53.4,46.8,30.15,ESE,120,11.0,17.0,78,0.00,,,0.00,0.0,meteohub,2013-01-29 10:07:00,
2013-01-29 05:12:00,53.2,46.9,30.14,ESE,109,1.0,17.0,79,0.00,,,0.00,0.0,meteohub,2013-01-29 10:12:00,
2013-01-29 05:17:00,53.2,47.3,30.14,East,88,1.0,17.0,80,0.00,,,0.00,0.0,meteohub,2013-01-29 10:17:00,
2013-01-29 05:22:00,53.2,47.3,30.14,South,179,1.0,16.0,80,0.00,,,0.00,0.0,meteohub,2013-01-29 10:22:00,
2013-01-29 05:27:00,53.2,46.9,30.13,SSW,200,2.0,16.0,79,0.00,,,0.00,0.0,meteohub,2013-01-29 10:27:00,
2013-01-29 05:32:00,53.2,46.6,30.13,SE,142,8.0,12.0,78,0.00,,,0.00,0.0,meteohub,2013-01-29 10:32:00,
2013-01-29 05:37:00,53.2,46.2,30.13,SSW,194,3.0,12.0,77,0.00,,,0.00,0.0,meteohub,2013-01-29 10:37:00,
2013-01-29 05:42:00,53.2,45.9,30.13,ESE,111,0.0,12.0,76,0.00,,,0.00,0.0,meteohub,2013-01-29 10:42:00,
2013-01-29 05:47:00,53.2,45.5,30.13,SSE,157,6.0,9.0,75,0.00,,,0.00,0.0,meteohub,2013-01-29 10:47:00,
2013-01-29 05:52:00,53.2,44.8,30.13,North,355,0.0,9.0,73,0.00,,,0.00,0.0,meteohub,2013-01-29 10:52:00,
2013-01-29 05:57:00,53.2,44.1,30.13,SSE,159,8.0,9.0,71,0.00,,,0.00,0.0,meteohub,2013-01-29 10:57:00,
2013-01-29 06:02:00,53.4,43.9,30.13,NE,55,1.0,11.0,70,0.00,,,0.00,0.0,meteohub,2013-01-29 11:02:00,
2013-01-29 06:07:00,53.4,43.2,30.13,SE,140,2.0,11.0,68,0.00,,,0.00,0.0,meteohub,2013-01-29 11:07:00,
2013-01-29 06:12:00,53.4,42.8,30.13,South,171,0.0,13.0,67,0.00,,,0.00,0.0,meteohub,2013-01-29 11:12:00,
2013-01-29 06:17:00,53.4,42.3,30.13,South,171,4.0,13.0,66,0.00,,,0.00,0.0,meteohub,2013-01-29 11:17:00,
2013-01-29 06:22:00,53.6,42.1,30.13,East,95,0.0,9.0,65,0.00,,,0.00,0.0,meteohub,2013-01-29 11:22:00,
2013-01-29 06:27:00,53.6,41.7,30.14,SSE,163,2.0,9.0,64,0.00,,,0.00,0.0,meteohub,2013-01-29 11:27:00,
2013-01-29 06:32:00,53.6,42.1,30.13,SW,224,8.0,15.0,65,0.00,,,0.00,0.0,meteohub,2013-01-29 11:32:00,
2013-01-29 06:37:00,53.6,42.4,30.13,ESE,118,2.0,15.0,66,0.00,,,0.00,0.0,meteohub,2013-01-29 11:37:00,
2013-01-29 06:42:00,53.4,42.8,30.14,NNE,32,2.0,15.0,67,0.00,,,0.00,0.0,meteohub,2013-01-29 11:42:00,
2013-01-29 06:47:00,53.4,43.2,30.14,SW,232,1.0,10.0,68,0.00,,,0.00,0.0,meteohub,2013-01-29 11:47:00,
2013-01-29 06:52:00,53.2,43.0,30.14,WSW,237,2.0,10.0,68,0.00,,,0.00,0.0,meteohub,2013-01-29 11:52:00,
2013-01-29 06:57:00,53.1,42.8,30.14,South,184,2.0,9.0,68,0.00,,,0.00,0.0,meteohub,2013-01-29 11:57:00,
2013-01-29 07:02:00,53.1,42.8,30.14,SE,137,5.0,10.0,68,0.00,,,0.00,0.0,meteohub,2013-01-29 12:02:00,
2013-01-29 07:07:00,52.7,43.5,30.14,South,184,4.0,10.0,71,0.00,,,0.00,0.0,meteohub,2013-01-29 12:07:00,
2013-01-29 07:14:00,52.3,43.9,30.14,SE,129,4.0,11.0,73,0.00,,,0.00,0.0,meteohub,2013-01-29 12:14:00,
2013-01-29 07:20:00,52.3,44.2,30.14,South,182,7.0,14.0,74,0.00,,,0.00,0.0,meteohub,2013-01-29 12:20:00,
2013-01-29 07:26:00,52.3,45.7,30.14,ESE,110,1.0,14.0,78,0.00,,,0.00,0.0,meteohub,2013-01-29 12:26:00,
2013-01-29 07:32:00,52.3,46.0,30.14,SSE,159,5.0,16.0,79,0.00,,,0.00,5.0,meteohub,2013-01-29 12:32:00,
2013-01-29 07:37:00,52.3,46.8,30.14,SE,131,7.0,16.0,81,0.00,,,0.00,9.0,meteohub,2013-01-29 12:37:00,
2013-01-29 07:42:00,52.2,46.6,30.14,South,182,3.0,16.0,81,0.00,,,0.00,12.0,meteohub,2013-01-29 12:42:00,
2013-01-29 07:47:00,52.5,46.9,30.14,ESE,104,2.0,11.0,81,0.00,,,0.00,19.0,meteohub,2013-01-29 12:47:00,
2013-01-29 07:52:00,52.5,47.1,30.14,SSE,165,8.0,11.0,82,0.00,,,0.00,28.0,meteohub,2013-01-29 12:52:00,
2013-01-29 07:57:00,53.1,48.0,30.14,SSE,166,8.0,11.0,83,0.00,,,0.00,39.0,meteohub,2013-01-29 12:57:00,
2013-01-29 08:02:00,53.6,48.6,30.14,SW,236,3.0,13.0,83,0.00,,,0.00,53.0,meteohub,2013-01-29 13:02:00,
2013-01-29 08:07:00,54.3,49.3,30.14,SSE,168,2.0,13.0,83,0.00,,,0.00,70.0,meteohub,2013-01-29 13:07:00,
2013-01-29 08:12:00,54.9,49.5,30.14,SSW,200,7.0,28.0,82,0.00,,,0.00,93.0,meteohub,2013-01-29 13:12:00,
2013-01-29 08:17:00,55.4,49.6,30.14,SSW,211,1.0,28.0,81,0.00,,,0.00,113.0,meteohub,2013-01-29 13:17:00,
2013-01-29 08:22:00,55.8,50.0,30.14,SSE,159,6.0,14.0,81,0.00,,,0.00,135.0,meteohub,2013-01-29 13:22:00,
2013-01-29 08:27:00,56.1,49.6,30.14,SSW,199,2.0,14.0,79,0.00,,,0.00,153.0,meteohub,2013-01-29 13:27:00,
2013-01-29 08:32:00,56.7,49.8,30.14,WSW,253,3.0,13.0,78,0.00,,,0.00,146.0,meteohub,2013-01-29 13:32:00,
2013-01-29 08:37:00,56.7,49.8,30.14,South,185,1.0,13.0,78,0.00,,,0.00,128.0,meteohub,2013-01-29 13:37:00,
2013-01-29 08:42:00,56.7,49.8,30.14,South,185,4.0,12.0,78,0.00,,,0.00,84.0,meteohub,2013-01-29 13:42:00,
2013-01-29 08:47:00,56.7,50.2,30.14,South,180,2.0,12.0,79,0.00,,,0.00,132.0,meteohub,2013-01-29 13:47:00,
2013-01-29 08:52:00,56.7,50.2,30.14,SE,127,5.0,9.0,79,0.00,,,0.00,158.0,meteohub,2013-01-29 13:52:00,
2013-01-29 08:57:00,57.0,50.5,30.14,South,183,5.0,11.0,79,0.00,,,0.00,158.0,meteohub,2013-01-29 13:57:00,
2013-01-29 09:02:00,57.4,50.5,30.14,South,175,1.0,11.0,78,0.00,,,0.00,236.0,meteohub,2013-01-29 14:02:00,
2013-01-29 09:07:00,57.9,51.1,30.14,South,173,4.0,13.0,78,0.00,,,0.00,251.0,meteohub,2013-01-29 14:07:00,
2013-01-29 09:12:00,58.5,51.3,30.14,SSW,194,2.0,13.0,77,0.00,,,0.00,265.0,meteohub,2013-01-29 14:12:00,
2013-01-29 09:17:00,59.0,51.4,30.14,South,190,5.0,13.0,76,0.00,,,0.00,285.0,meteohub,2013-01-29 14:17:00,
2013-01-29 09:22:00,59.4,51.4,30.14,South,182,3.0,12.0,75,0.00,,,0.00,295.0,meteohub,2013-01-29 14:22:00,
2013-01-29 09:27:00,59.7,51.4,30.14,SSE,154,5.0,12.0,74,0.00,,,0.00,306.0,meteohub,2013-01-29 14:27:00,
2013-01-29 09:32:00,59.9,51.6,30.14,SE,142,6.0,12.0,74,0.00,,,0.00,287.0,meteohub,2013-01-29 14:32:00,
2013-01-29 09:37:00,59.7,51.4,30.15,West,281,3.0,12.0,74,0.00,,,0.00,199.0,meteohub,2013-01-29 14:37:00,
2013-01-29 09:42:00,59.5,51.6,30.14,SE,136,5.0,16.0,75,0.00,,,0.00,158.0,meteohub,2013-01-29 14:42:00,
2013-01-29 09:47:00,60.1,52.5,30.15,SW,214,0.0,16.0,76,0.00,,,0.00,364.0,meteohub,2013-01-29 14:47:00,
2013-01-29 09:52:00,60.3,52.0,30.15,South,185,5.0,16.0,74,0.00,,,0.00,390.0,meteohub,2013-01-29 14:52:00,
2013-01-29 09:57:00,60.4,52.2,30.14,North,0,1.0,11.0,74,0.00,,,0.00,383.0,meteohub,2013-01-29 14:57:00,
2013-01-29 10:02:00,60.6,52.3,30.14,SSW,202,1.0,11.0,74,0.00,,,0.00,388.0,meteohub,2013-01-29 15:02:00,
2013-01-29 10:07:00,61.0,52.3,30.14,SW,221,1.0,11.0,73,0.00,,,0.00,369.0,meteohub,2013-01-29 15:07:00,
2013-01-29 10:12:00,61.3,52.7,30.14,SSW,210,0.0,11.0,73,0.00,,,0.00,397.0,meteohub,2013-01-29 15:12:00,
2013-01-29 10:17:00,61.7,52.5,30.14,SW,232,4.0,11.0,72,0.00,,,0.00,446.0,meteohub,2013-01-29 15:17:00,
2013-01-29 10:22:00,62.1,52.5,30.14,WSW,247,1.0,10.0,71,0.00,,,0.00,450.0,meteohub,2013-01-29 15:22:00,
2013-01-29 10:27:00,62.1,52.5,30.14,SSW,211,0.0,10.0,71,0.00,,,0.00,232.0,meteohub,2013-01-29 15:27:00,
2013-01-29 10:32:00,61.7,52.5,30.14,SSW,195,0.0,12.0,72,0.00,,,0.00,517.0,meteohub,2013-01-29 15:32:00,
2013-01-29 10:37:00,61.9,53.1,30.14,North,355,0.0,12.0,73,0.00,,,0.00,501.0,meteohub,2013-01-29 15:37:00,
2013-01-29 10:42:00,62.1,53.2,30.14,South,182,1.0,12.0,73,0.00,,,0.00,381.0,meteohub,2013-01-29 15:42:00,
2013-01-29 10:47:00,62.4,53.2,30.14,SSW,192,1.0,9.0,72,0.00,,,0.00,357.0,meteohub,2013-01-29 15:47:00,
2013-01-29 10:52:00,62.8,53.6,30.14,South,185,2.0,7.0,72,0.00,,,0.00,206.0,meteohub,2013-01-29 15:52:00,
2013-01-29 10:57:00,62.8,53.2,30.14,SSW,207,2.0,8.0,71,0.00,,,0.00,223.0,meteohub,2013-01-29 15:57:00,
2013-01-29 11:02:00,61.9,52.7,30.14,South,191,0.0,8.0,72,0.00,,,0.00,237.0,meteohub,2013-01-29 16:02:00,
2013-01-29 11:07:00,61.3,53.1,30.14,SSE,165,4.0,10.0,74,0.00,,,0.00,274.0,meteohub,2013-01-29 16:07:00,
2013-01-29 11:12:00,61.0,53.4,30.14,SW,219,1.0,10.0,76,0.00,,,0.00,206.0,meteohub,2013-01-29 16:12:00,
2013-01-29 11:17:00,60.6,53.1,30.14,SW,232,2.0,6.0,76,0.00,,,0.00,199.0,meteohub,2013-01-29 16:17:00,
2013-01-29 11:22:00,60.4,53.6,30.14,South,178,2.0,6.0,78,0.00,,,0.00,221.0,meteohub,2013-01-29 16:22:00,
2013-01-29 11:27:00,60.1,53.2,30.13,South,176,4.0,7.0,78,0.00,,,0.00,207.0,meteohub,2013-01-29 16:27:00,
2013-01-29 11:32:00,59.7,53.2,30.13,South,186,3.0,8.0,79,0.00,,,0.00,308.0,meteohub,2013-01-29 16:32:00,
2013-01-29 11:37:00,60.1,53.6,30.13,South,180,0.0,8.0,79,0.00,,,0.00,193.0,meteohub,2013-01-29 16:37:00,
2013-01-29 11:42:00,60.6,54.5,30.13,East,91,0.0,8.0,80,0.00,,,0.00,452.0,meteohub,2013-01-29 16:42:00,
2013-01-29 11:49:00,60.8,54.0,30.12,SE,132,5.0,7.0,78,0.00,,,0.00,218.0,meteohub,2013-01-29 16:49:00,
2013-01-29 11:55:00,60.4,53.6,30.12,South,178,1.0,7.0,78,0.00,,,0.00,216.0,meteohub,2013-01-29 16:55:00,
2013-01-29 12:01:00,60.1,54.0,30.12,SSE,153,5.0,7.0,80,0.00,,,0.00,306.0,meteohub,2013-01-29 17:01:00,
2013-01-29 12:07:00,60.4,54.9,30.11,SE,142,7.0,7.0,82,0.00,,,0.00,239.0,meteohub,2013-01-29 17:07:00,
2013-01-29 12:12:00,60.6,54.7,30.11,SSE,161,6.0,7.0,81,0.00,,,0.00,348.0,meteohub,2013-01-29 17:12:00,
2013-01-29 12:17:00,60.6,54.7,30.10,South,171,2.0,8.0,81,0.00,,,0.00,287.0,meteohub,2013-01-29 17:17:00,
2013-01-29 12:22:00,61.2,55.2,30.09,South,184,2.0,8.0,81,0.00,,,0.00,251.0,meteohub,2013-01-29 17:22:00,
2013-01-29 12:27:00,61.7,55.4,30.09,SSW,192,2.0,8.0,80,0.00,,,0.00,236.0,meteohub,2013-01-29 17:27:00,
2013-01-29 12:32:00,61.7,55.0,30.09,SE,134,5.0,8.0,79,0.00,,,0.00,200.0,meteohub,2013-01-29 17:32:00,
2013-01-29 12:37:00,61.5,54.9,30.09,South,185,0.0,9.0,79,0.00,,,0.00,134.0,meteohub,2013-01-29 17:37:00,
2013-01-29 12:43:00,62.1,55.8,30.08,SE,130,0.0,9.0,80,0.00,,,0.00,190.0,meteohub,2013-01-29 17:43:00,
2013-01-29 12:49:00,62.2,55.2,30.08,SSE,150,2.0,8.0,78,0.00,,,0.00,267.0,meteohub,2013-01-29 17:49:00,
2013-01-29 12:55:00,62.2,55.2,30.08,SE,140,5.0,7.0,78,0.00,,,0.00,204.0,meteohub,2013-01-29 17:55:00,
2013-01-29 13:01:00,62.4,55.4,30.07,SE,134,5.0,7.0,78,0.00,,,0.00,357.0,meteohub,2013-01-29 18:01:00,
2013-01-29 13:07:00,63.0,55.2,30.07,SW,232,0.0,9.0,76,0.00,,,0.00,330.0,meteohub,2013-01-29 18:07:00,
2013-01-29 13:12:00,63.3,55.2,30.07,SE,141,0.0,9.0,75,0.00,,,0.00,162.0,meteohub,2013-01-29 18:12:00,
2013-01-29 13:17:00,63.3,55.2,30.06,South,190,2.0,9.0,75,0.00,,,0.00,76.0,meteohub,2013-01-29 18:17:00,
2013-01-29 13:22:00,62.8,55.0,30.06,ESE,113,13.0,13.0,76,0.00,,,0.00,125.0,meteohub,2013-01-29 18:22:00,
2013-01-29 13:27:00,62.1,54.7,30.06,SW,216,3.0,14.0,77,0.00,,,0.00,141.0,meteohub,2013-01-29 18:27:00,
2013-01-29 13:32:00,61.7,55.0,30.06,SSW,192,5.0,14.0,79,0.00,,,0.00,265.0,meteohub,2013-01-29 18:32:00,
2013-01-29 13:37:00,61.5,54.9,30.06,South,189,1.0,14.0,79,0.00,,,0.00,251.0,meteohub,2013-01-29 18:37:00,
2013-01-29 13:42:00,61.7,55.0,30.06,South,183,2.0,13.0,79,0.00,,,0.00,171.0,meteohub,2013-01-29 18:42:00,
2013-01-29 13:47:00,61.9,55.2,30.06,SSE,158,4.0,9.0,79,0.00,,,0.00,146.0,meteohub,2013-01-29 18:47:00,
2013-01-29 13:52:00,61.7,55.0,30.05,South,178,2.0,8.0,79,0.00,,,0.00,163.0,meteohub,2013-01-29 18:52:00,
2013-01-29 13:57:00,61.5,55.2,30.05,South,189,1.0,10.0,80,0.00,,,0.00,113.0,meteohub,2013-01-29 18:57:00,
2013-01-29 14:02:00,61.3,55.0,30.05,South,190,1.0,10.0,80,0.00,,,0.00,162.0,meteohub,2013-01-29 19:02:00,
2013-01-29 14:07:00,61.2,55.2,30.05,SW,219,2.0,10.0,81,0.00,,,0.00,142.0,meteohub,2013-01-29 19:07:00,
2013-01-29 14:12:00,61.3,55.4,30.05,WSW,253,1.0,9.0,81,0.00,,,0.00,128.0,meteohub,2013-01-29 19:12:00,
2013-01-29 14:17:00,61.3,55.4,30.06,South,183,1.0,9.0,81,0.00,,,0.00,35.0,meteohub,2013-01-29 19:17:00,
2013-01-29 14:22:00,61.0,55.4,30.05,SSW,202,2.0,9.0,82,0.00,,,0.00,62.0,meteohub,2013-01-29 19:22:00,
2013-01-29 14:27:00,60.6,55.0,30.05,South,185,0.0,9.0,82,0.00,,,0.00,113.0,meteohub,2013-01-29 19:27:00,
2013-01-29 14:32:00,60.4,55.2,30.06,South,182,2.0,9.0,83,0.00,,,0.00,74.0,meteohub,2013-01-29 19:32:00,
2013-01-29 14:37:00,60.3,55.4,30.06,ESE,111,0.0,8.0,84,0.00,,,0.00,56.0,meteohub,2013-01-29 19:37:00,
2013-01-29 14:42:00,60.1,55.2,30.05,SSE,161,0.0,7.0,84,0.00,,,0.00,46.0,meteohub,2013-01-29 19:42:00,
2013-01-29 14:47:00,59.7,55.2,30.05,SSE,166,0.0,5.0,85,0.00,,,0.00,104.0,meteohub,2013-01-29 19:47:00,
2013-01-29 14:52:00,59.7,55.2,30.05,South,181,1.0,6.0,85,0.00,,,0.00,83.0,meteohub,2013-01-29 19:52:00,
2013-01-29 14:57:00,59.5,55.4,30.04,SSE,162,6.0,6.0,86,0.00,,,0.00,53.0,meteohub,2013-01-29 19:57:00,
2013-01-29 15:02:00,59.2,55.0,30.05,SSE,168,1.0,7.0,86,0.00,,,0.00,60.0,meteohub,2013-01-29 20:02:00,
2013-01-29 15:05:00,59.2,55.4,30.04,East,98,0.0,7.0,87,0.00,,,0.00,120.0,meteohub,2013-01-29 20:05:00,
2013-01-29 15:11:00,59.4,55.4,30.04,SSE,167,4.0,7.0,87,0.00,,,0.00,204.0,meteohub,2013-01-29 20:11:00,
2013-01-29 15:17:00,59.7,55.6,30.04,SSE,154,0.0,7.0,86,0.00,,,0.00,102.0,meteohub,2013-01-29 20:17:00,
2013-01-29 15:23:00,60.1,55.6,30.04,ESE,107,1.0,7.0,85,0.00,,,0.00,132.0,meteohub,2013-01-29 20:23:00,
2013-01-29 15:29:00,60.3,55.8,30.04,South,182,1.0,7.0,85,0.00,,,0.00,169.0,meteohub,2013-01-29 20:29:00,
2013-01-29 15:36:00,60.4,55.9,30.04,South,173,2.0,6.0,85,0.00,,,0.00,183.0,meteohub,2013-01-29 20:36:00,
2013-01-29 15:42:00,60.3,55.4,30.04,South,178,2.0,6.0,84,0.00,,,0.00,113.0,meteohub,2013-01-29 20:42:00,
2013-01-29 15:47:00,60.3,55.4,30.03,SSE,148,0.0,6.0,84,0.00,,,0.00,70.0,meteohub,2013-01-29 20:47:00,
2013-01-29 15:52:00,60.1,55.6,30.03,SSE,159,1.0,7.0,85,0.00,,,0.00,76.0,meteohub,2013-01-29 20:52:00,
2013-01-29 15:57:00,60.1,55.6,30.03,SE,133,0.0,7.0,85,0.00,,,0.00,93.0,meteohub,2013-01-29 20:57:00,
2013-01-29 16:02:00,60.1,55.6,30.03,ESE,118,2.0,7.0,85,0.00,,,0.00,88.0,meteohub,2013-01-29 21:02:00,
2013-01-29 16:09:00,60.1,55.6,30.03,SSE,166,0.0,5.0,85,0.00,,,0.00,51.0,meteohub,2013-01-29 21:09:00,
2013-01-29 16:15:00,59.9,55.4,30.02,South,182,2.0,5.0,85,0.00,,,0.00,46.0,meteohub,2013-01-29 21:15:00,
2013-01-29 16:21:00,59.7,55.6,30.02,South,184,2.0,6.0,86,0.00,,,0.00,88.0,meteohub,2013-01-29 21:21:00,
2013-01-29 16:27:00,59.7,55.6,30.02,SSE,153,1.0,6.0,86,0.00,,,0.00,72.0,meteohub,2013-01-29 21:27:00,
2013-01-29 16:32:00,59.7,55.2,30.02,SSE,159,0.0,6.0,85,0.00,,,0.00,65.0,meteohub,2013-01-29 21:32:00,
2013-01-29 16:39:00,59.7,55.2,30.02,SSW,197,2.0,6.0,85,0.00,,,0.00,39.0,meteohub,2013-01-29 21:39:00,
2013-01-29 16:45:00,59.4,55.2,30.02,SSE,168,1.0,4.0,86,0.00,,,0.00,23.0,meteohub,2013-01-29 21:45:00,
2013-01-29 16:51:00,59.2,55.0,30.02,SSE,167,0.0,6.0,86,0.00,,,0.00,40.0,meteohub,2013-01-29 21:51:00,
2013-01-29 16:57:00,59.2,55.0,30.02,SSE,157,0.0,6.0,86,0.00,,,0.00,44.0,meteohub,2013-01-29 21:57:00,
2013-01-29 17:02:00,59.2,55.0,30.02,SSE,168,1.0,4.0,86,0.00,,,0.00,42.0,meteohub,2013-01-29 22:02:00,
2013-01-29 17:07:00,59.0,55.2,30.01,SSE,159,0.0,4.0,87,0.00,,,0.00,16.0,meteohub,2013-01-29 22:07:00,
2013-01-29 17:12:00,58.8,55.0,30.02,SSE,150,0.0,4.0,87,0.00,,,0.00,7.0,meteohub,2013-01-29 22:12:00,
2013-01-29 17:17:00,58.6,54.9,30.01,South,178,4.0,4.0,87,0.00,,,0.00,5.0,meteohub,2013-01-29 22:17:00,
2013-01-29 17:22:00,58.5,54.7,30.01,South,180,0.0,4.0,87,0.00,,,0.00,0.0,meteohub,2013-01-29 22:22:00,
2013-01-29 17:27:00,58.3,54.5,30.01,SSW,192,0.0,4.0,87,0.00,,,0.00,5.0,meteohub,2013-01-29 22:27:00,
2013-01-29 17:32:00,58.3,54.7,30.01,South,174,0.0,4.0,88,0.00,,,0.00,0.0,meteohub,2013-01-29 22:32:00,
2013-01-29 17:37:00,58.1,54.5,30.01,South,174,1.0,4.0,88,0.00,,,0.00,0.0,meteohub,2013-01-29 22:37:00,
2013-01-29 17:42:00,58.1,54.5,30.01,SSE,152,1.0,4.0,88,0.00,,,0.00,0.0,meteohub,2013-01-29 22:42:00,
2013-01-29 17:47:00,57.9,54.3,30.02,SSE,152,0.0,4.0,88,0.00,,,0.00,0.0,meteohub,2013-01-29 22:47:00,
2013-01-29 17:52:00,57.9,54.7,30.01,South,169,0.0,4.0,89,0.00,,,0.00,0.0,meteohub,2013-01-29 22:52:00,
2013-01-29 17:57:00,57.9,54.3,30.02,South,169,0.0,4.0,88,0.00,,,0.00,0.0,meteohub,2013-01-29 22:57:00,
2013-01-29 18:02:00,57.7,54.5,30.01,SSE,157,1.0,4.0,89,0.00,,,0.00,0.0,meteohub,2013-01-29 23:02:00,
2013-01-29 18:07:00,57.7,54.1,30.02,SSE,157,1.0,4.0,88,0.00,,,0.00,0.0,meteohub,2013-01-29 23:07:00,
2013-01-29 18:12:00,57.7,54.1,30.01,SE,141,0.0,6.0,88,0.00,,,0.00,0.0,meteohub,2013-01-29 23:12:00,
2013-01-29 18:17:00,57.7,54.1,30.01,South,184,0.0,6.0,88,0.00,,,0.00,0.0,meteohub,2013-01-29 23:17:00,
2013-01-29 18:22:00,57.6,54.0,30.01,South,184,1.0,6.0,88,0.00,,,0.00,0.0,meteohub,2013-01-29 23:22:00,
2013-01-29 18:27:00,57.6,54.0,30.01,South,175,1.0,5.0,88,0.00,,,0.00,0.0,meteohub,2013-01-29 23:27:00,
2013-01-29 18:32:00,57.6,54.0,30.01,South,176,2.0,5.0,88,0.00,,,0.00,0.0,meteohub,2013-01-29 23:32:00,
2013-01-29 18:37:00,57.7,54.1,30.01,SSE,159,0.0,5.0,88,0.00,,,0.00,0.0,meteohub,2013-01-29 23:37:00,
2013-01-29 18:42:00,57.7,54.1,30.01,SSE,164,0.0,5.0,88,0.00,,,0.00,0.0,meteohub,2013-01-29 23:42:00,
2013-01-29 18:47:00,57.7,54.1,30.01,SSE,159,2.0,5.0,88,0.00,,,0.00,0.0,meteohub,2013-01-29 23:47:00,
2013-01-29 18:52:00,57.7,54.1,30.01,SE,131,0.0,5.0,88,0.00,,,0.00,0.0,meteohub,2013-01-29 23:52:00,
2013-01-29 18:57:00,57.7,54.1,30.01,SSW,207,0.0,5.0,88,0.00,,,0.00,0.0,meteohub,2013-01-29 23:57:00,
2013-01-29 19:02:00,57.7,54.1,30.01,South,169,1.0,5.0,88,0.00,,,0.00,0.0,meteohub,2013-01-30 00:02:00,
2013-01-29 19:07:00,57.7,54.0,30.00,SE,134,1.0,5.0,87,0.00,,,0.00,0.0,meteohub,2013-01-30 00:07:00,
2013-01-29 19:12:00,57.7,54.0,30.00,SE,142,1.0,5.0,87,0.00,,,0.00,0.0,meteohub,2013-01-30 00:12:00,
2013-01-29 19:17:00,57.7,54.1,30.00,SE,142,0.0,5.0,88,0.00,,,0.00,0.0,meteohub,2013-01-30 00:17:00,
2013-01-29 19:22:00,57.7,54.1,30.00,SSE,151,0.0,5.0,88,0.00,,,0.00,0.0,meteohub,2013-01-30 00:22:00,
2013-01-29 19:27:00,57.7,54.1,29.99,SSE,167,2.0,4.0,88,0.00,,,0.00,0.0,meteohub,2013-01-30 00:27:00,
2013-01-29 19:32:00,57.7,54.1,29.99,SSE,158,1.0,5.0,88,0.00,,,0.00,0.0,meteohub,2013-01-30 00:32:00,
2013-01-29 19:37:00,57.7,54.1,29.99,SSE,162,1.0,6.0,88,0.00,,,0.00,0.0,meteohub,2013-01-30 00:37:00,
2013-01-29 19:42:00,57.9,54.1,30.00,SSE,164,0.0,6.0,87,0.00,,,0.00,0.0,meteohub,2013-01-30 00:42:00,
2013-01-29 19:47:00,57.9,54.1,30.00,SSE,167,1.0,6.0,87,0.00,,,0.00,0.0,meteohub,2013-01-30 00:47:00,
2013-01-29 19:52:00,58.1,54.3,29.99,South,177,0.0,6.0,87,0.00,,,0.00,0.0,meteohub,2013-01-30 00:52:00,
2013-01-29 19:57:00,58.1,54.3,29.99,SSE,166,1.0,4.0,87,0.00,,,0.00,0.0,meteohub,2013-01-30 00:57:00,
2013-01-29 20:02:00,58.3,54.5,29.99,SE,146,5.0,7.0,87,0.00,,,0.00,0.0,meteohub,2013-01-30 01:02:00,
2013-01-29 20:07:00,58.3,54.5,29.99,South,186,5.0,7.0,87,0.00,,,0.00,0.0,meteohub,2013-01-30 01:07:00,
2013-01-29 20:12:00,58.3,54.5,29.99,South,182,2.0,9.0,87,0.00,,,0.00,0.0,meteohub,2013-01-30 01:12:00,
2013-01-29 20:17:00,58.3,54.5,29.99,South,176,0.0,9.0,87,0.00,,,0.00,0.0,meteohub,2013-01-30 01:17:00,
2013-01-29 20:22:00,58.3,54.5,29.99,SSW,195,1.0,9.0,87,0.00,,,0.00,0.0,meteohub,2013-01-30 01:22:00,
2013-01-29 20:27:00,58.3,54.5,29.99,South,180,1.0,5.0,87,0.00,,,0.00,0.0,meteohub,2013-01-30 01:27:00,
2013-01-29 20:32:00,58.3,54.5,29.99,SSE,155,4.0,5.0,87,0.00,,,0.00,0.0,meteohub,2013-01-30 01:32:00,
2013-01-29 20:37:00,58.5,54.7,29.99,SE,142,1.0,5.0,87,0.00,,,0.00,0.0,meteohub,2013-01-30 01:37:00,
2013-01-29 20:42:00,58.5,54.7,29.99,South,184,3.0,6.0,87,0.00,,,0.00,0.0,meteohub,2013-01-30 01:42:00,
2013-01-29 20:47:00,58.5,54.7,30.00,South,184,1.0,6.0,87,0.00,,,0.00,0.0,meteohub,2013-01-30 01:47:00,
2013-01-29 20:52:00,58.5,54.7,29.99,South,181,3.0,6.0,87,0.00,,,0.00,0.0,meteohub,2013-01-30 01:52:00,
2013-01-29 20:57:00,58.5,54.9,29.99,South,174,4.0,7.0,88,0.00,,,0.00,0.0,meteohub,2013-01-30 01:57:00,
2013-01-29 21:02:00,58.6,55.0,29.99,South,190,1.0,7.0,88,0.00,,,0.00,0.0,meteohub,2013-01-30 02:02:00,
2013-01-29 21:07:00,58.6,55.0,30.00,South,190,0.0,7.0,88,0.00,,,0.00,0.0,meteohub,2013-01-30 02:07:00,
2013-01-29 21:12:00,58.6,55.4,30.00,South,180,1.0,7.0,89,0.00,,,0.00,0.0,meteohub,2013-01-30 02:12:00,
2013-01-29 21:17:00,58.5,55.2,29.99,SSE,163,1.0,6.0,89,0.00,,,0.00,0.0,meteohub,2013-01-30 02:17:00,
2013-01-29 21:22:00,58.5,55.2,29.98,SE,146,2.0,6.0,89,0.00,,,0.00,0.0,meteohub,2013-01-30 02:22:00,
2013-01-29 21:27:00,58.3,55.4,29.98,South,175,4.0,6.0,90,0.00,,,0.00,0.0,meteohub,2013-01-30 02:27:00,
2013-01-29 21:32:00,58.5,55.6,29.97,South,169,4.0,7.0,90,0.00,,,0.00,0.0,meteohub,2013-01-30 02:32:00,
2013-01-29 21:37:00,58.5,55.6,29.97,South,176,2.0,7.0,90,0.00,,,0.00,0.0,meteohub,2013-01-30 02:37:00,
2013-01-29 21:42:00,58.6,55.4,29.97,SSE,167,2.0,13.0,89,0.00,,,0.00,0.0,meteohub,2013-01-30 02:42:00,
2013-01-29 21:47:00,58.6,55.4,29.97,SSE,159,6.0,13.0,89,0.00,,,0.00,0.0,meteohub,2013-01-30 02:47:00,
2013-01-29 21:52:00,58.6,55.4,29.97,South,169,5.0,7.0,89,0.00,,,0.00,0.0,meteohub,2013-01-30 02:52:00,
2013-01-29 21:57:00,58.5,55.6,29.96,SSE,167,4.0,7.0,90,0.00,,,0.00,0.0,meteohub,2013-01-30 02:57:00,
2013-01-29 22:02:00,58.5,55.6,29.96,South,169,4.0,7.0,90,0.00,,,0.00,0.0,meteohub,2013-01-30 03:02:00,
2013-01-29 22:07:00,58.3,55.6,29.95,South,180,2.0,7.0,91,0.00,,,0.00,0.0,meteohub,2013-01-30 03:07:00,
2013-01-29 22:12:00,57.9,55.2,29.96,South,180,2.0,7.0,91,0.00,,,0.00,0.0,meteohub,2013-01-30 03:12:00,
2013-01-29 22:17:00,57.7,55.4,29.96,South,184,2.0,6.0,92,0.00,,,0.00,0.0,meteohub,2013-01-30 03:17:00,
2013-01-29 22:22:00,57.7,55.4,29.96,South,180,0.0,6.0,92,0.00,,,0.00,0.0,meteohub,2013-01-30 03:22:00,
2013-01-29 22:27:00,57.9,55.6,29.96,South,188,2.0,7.0,92,0.00,,,0.00,0.0,meteohub,2013-01-30 03:27:00,
2013-01-29 22:32:00,57.9,55.6,29.96,SE,144,4.0,7.0,92,0.00,,,0.00,0.0,meteohub,2013-01-30 03:32:00,
2013-01-29 22:37:00,57.7,55.8,29.95,South,173,2.0,7.0,93,0.00,,,0.00,0.0,meteohub,2013-01-30 03:37:00,
2013-01-29 22:42:00,57.6,55.6,29.95,South,190,2.0,8.0,93,0.00,,,0.00,0.0,meteohub,2013-01-30 03:42:00,
2013-01-29 22:47:00,57.6,55.6,29.95,South,177,2.0,8.0,93,0.00,,,0.00,0.0,meteohub,2013-01-30 03:47:00,
2013-01-29 22:52:00,57.4,55.6,29.95,South,176,0.0,8.0,94,0.01,,,0.01,0.0,meteohub,2013-01-30 03:52:00,
2013-01-29 22:57:00,57.2,55.4,29.94,ESE,104,2.0,6.0,94,0.01,,,0.01,0.0,meteohub,2013-01-30 03:57:00,
2013-01-29 23:02:00,57.0,55.6,29.95,SE,144,2.0,5.0,95,0.01,,,0.01,0.0,meteohub,2013-01-30 04:02:00,
2013-01-29 23:07:00,56.8,55.4,29.95,South,169,2.0,7.0,95,0.02,,,0.02,0.0,meteohub,2013-01-30 04:07:00,
2013-01-29 23:12:00,56.8,55.4,29.95,SSE,151,1.0,7.0,95,0.02,,,0.02,0.0,meteohub,2013-01-30 04:12:00,
2013-01-29 23:17:00,56.7,55.2,29.94,South,174,2.0,7.0,95,0.02,,,0.02,0.0,meteohub,2013-01-30 04:17:00,
2013-01-29 23:23:00,56.5,55.4,29.94,SSE,161,4.0,6.0,96,0.02,,,0.02,0.0,meteohub,2013-01-30 04:23:00,
2013-01-29 23:29:00,56.3,55.2,29.94,SSE,152,4.0,6.0,96,0.02,,,0.02,0.0,meteohub,2013-01-30 04:29:00,
2013-01-29 23:35:00,56.3,55.2,29.94,South,184,0.0,7.0,96,0.02,,,0.02,0.0,meteohub,2013-01-30 04:35:00,
2013-01-29 23:41:00,56.3,55.2,29.94,South,184,3.0,7.0,96,0.02,,,0.02,0.0,meteohub,2013-01-30 04:41:00,
2013-01-29 23:47:00,56.5,55.6,29.94,South,188,2.0,7.0,97,0.02,,,0.02,0.0,meteohub,2013-01-30 04:47:00,
2013-01-29 23:52:00,56.5,55.6,29.93,South,173,2.0,7.0,97,0.01,,,0.02,0.0,meteohub,2013-01-30 04:52:00,
2013-01-29 23:57:00,56.5,55.6,29.94,South,176,4.0,7.0,97,0.01,,,0.02,0.0,meteohub,2013-01-30 04:57:00,